Year,Month,Day,Hour,Minute,Value (Times are PST for windspeed in km/hr)
2016,08,27,00,00,2.20
2016,08,27,00,01,1.40
2016,08,27,00,02,0.70
2016,08,27,00,03,0.10
2016,08,27,00,04,0.00
2016,08,27,00,05,0.00
2016,08,27,00,06,1.20
2016,08,27,00,07,0.80
2016,08,27,00,08,2.20
2016,08,27,00,09,1.30
2016,08,27,00,10,1.40
2016,08,27,00,11,1.40
2016,08,27,00,12,2.10
2016,08,27,00,13,2.30
2016,08,27,00,14,1.20
2016,08,27,00,15,0.00
2016,08,27,00,16,0.00
2016,08,27,00,17,0.00
2016,08,27,00,18,1.10
2016,08,27,00,19,2.50
2016,08,27,00,20,2.90
2016,08,27,00,21,2.80
2016,08,27,00,22,1.80
2016,08,27,00,23,1.60
2016,08,27,00,24,0.40
2016,08,27,00,25,2.20
2016,08,27,00,26,2.80
2016,08,27,00,27,2.80
2016,08,27,00,28,3.40
2016,08,27,00,29,2.60
2016,08,27,00,30,1.40
2016,08,27,00,31,2.50
2016,08,27,00,32,3.60
2016,08,27,00,33,3.10
2016,08,27,00,34,3.50
2016,08,27,00,35,3.10
2016,08,27,00,36,1.90
2016,08,27,00,37,1.70
2016,08,27,00,38,2.00
2016,08,27,00,39,2.60
2016,08,27,00,40,2.70
2016,08,27,00,41,2.90
2016,08,27,00,42,1.60
2016,08,27,00,43,1.90
2016,08,27,00,44,3.10
2016,08,27,00,45,3.30
2016,08,27,00,46,4.00
2016,08,27,00,47,4.00
2016,08,27,00,48,3.00
2016,08,27,00,49,3.00
2016,08,27,00,50,2.50
2016,08,27,00,51,3.30
2016,08,27,00,52,2.30
2016,08,27,00,53,2.20
2016,08,27,00,54,2.80
2016,08,27,00,55,1.90
2016,08,27,00,56,1.80
2016,08,27,00,57,1.80
2016,08,27,00,58,2.10
2016,08,27,00,59,1.90
2016,08,27,01,00,1.60
2016,08,27,01,01,2.20
2016,08,27,01,02,2.80
2016,08,27,01,03,2.20
2016,08,27,01,04,0.60
2016,08,27,01,05,0.00
2016,08,27,01,06,0.00
2016,08,27,01,07,0.00
2016,08,27,01,08,0.00
2016,08,27,01,09,0.00
2016,08,27,01,10,0.00
2016,08,27,01,11,0.00
2016,08,27,01,12,0.00
2016,08,27,01,13,0.00
2016,08,27,01,14,0.00
2016,08,27,01,15,0.00
2016,08,27,01,16,0.00
2016,08,27,01,17,0.00
2016,08,27,01,18,0.00
2016,08,27,01,19,0.00
2016,08,27,01,20,0.00
2016,08,27,01,21,0.00
2016,08,27,01,22,0.00
2016,08,27,01,23,0.00
2016,08,27,01,24,0.00
2016,08,27,01,25,0.00
2016,08,27,01,26,0.00
2016,08,27,01,27,0.00
2016,08,27,01,28,0.00
2016,08,27,01,29,0.00
2016,08,27,01,30,0.00
2016,08,27,01,31,0.00
2016,08,27,01,32,0.00
2016,08,27,01,33,0.00
2016,08,27,01,34,0.00
2016,08,27,01,35,0.00
2016,08,27,01,36,0.00
2016,08,27,01,37,0.00
2016,08,27,01,38,0.00
2016,08,27,01,39,0.00
2016,08,27,01,40,0.00
2016,08,27,01,41,0.00
2016,08,27,01,42,0.00
2016,08,27,01,43,0.00
2016,08,27,01,44,0.80
2016,08,27,01,45,2.70
2016,08,27,01,46,2.40
2016,08,27,01,47,1.60
2016,08,27,01,48,0.20
2016,08,27,01,49,0.20
2016,08,27,01,50,0.00
2016,08,27,01,51,0.00
2016,08,27,01,52,0.00
2016,08,27,01,53,0.30
2016,08,27,01,54,0.00
2016,08,27,01,55,0.00
2016,08,27,01,56,0.00
2016,08,27,01,57,0.00
2016,08,27,01,58,0.00
2016,08,27,01,59,0.00
2016,08,27,02,00,0.00
2016,08,27,02,01,0.00
2016,08,27,02,02,0.00
2016,08,27,02,03,0.00
2016,08,27,02,04,0.00
2016,08,27,02,05,0.00
2016,08,27,02,06,0.00
2016,08,27,02,07,0.00
2016,08,27,02,08,0.00
2016,08,27,02,09,0.00
2016,08,27,02,10,0.00
2016,08,27,02,11,0.00
2016,08,27,02,12,0.00
2016,08,27,02,13,0.00
2016,08,27,02,14,0.00
2016,08,27,02,15,0.50
2016,08,27,02,16,1.70
2016,08,27,02,17,1.40
2016,08,27,02,18,2.40
2016,08,27,02,19,0.70
2016,08,27,02,20,1.10
2016,08,27,02,21,0.40
2016,08,27,02,22,0.00
2016,08,27,02,23,0.00
2016,08,27,02,24,0.10
2016,08,27,02,25,0.00
2016,08,27,02,26,0.00
2016,08,27,02,27,0.00
2016,08,27,02,28,0.10
2016,08,27,02,29,1.10
2016,08,27,02,30,0.10
2016,08,27,02,31,1.30
2016,08,27,02,32,2.60
2016,08,27,02,33,1.30
2016,08,27,02,34,0.90
2016,08,27,02,35,1.00
2016,08,27,02,36,1.50
2016,08,27,02,37,1.80
2016,08,27,02,38,2.40
2016,08,27,02,39,2.70
2016,08,27,02,40,1.80
2016,08,27,02,41,0.90
2016,08,27,02,42,0.20
2016,08,27,02,43,0.00
2016,08,27,02,44,0.10
2016,08,27,02,45,0.50
2016,08,27,02,46,0.70
2016,08,27,02,47,0.20
2016,08,27,02,48,1.00
2016,08,27,02,49,0.40
2016,08,27,02,50,0.60
2016,08,27,02,51,2.10
2016,08,27,02,52,2.40
2016,08,27,02,53,2.30
2016,08,27,02,54,2.90
2016,08,27,02,55,2.40
2016,08,27,02,56,1.90
2016,08,27,02,57,1.80
2016,08,27,02,58,0.60
2016,08,27,02,59,1.60
2016,08,27,03,00,0.40
2016,08,27,03,01,1.50
2016,08,27,03,02,2.30
2016,08,27,03,03,4.40
2016,08,27,03,04,4.20
2016,08,27,03,05,5.40
2016,08,27,03,06,3.60
2016,08,27,03,07,2.80
2016,08,27,03,08,3.00
2016,08,27,03,09,2.30
2016,08,27,03,10,3.70
2016,08,27,03,11,2.90
2016,08,27,03,12,3.70
2016,08,27,03,13,3.00
2016,08,27,03,14,3.70
2016,08,27,03,15,3.70
2016,08,27,03,16,3.50
2016,08,27,03,17,6.70
2016,08,27,03,18,5.50
2016,08,27,03,19,6.90
2016,08,27,03,20,5.20
2016,08,27,03,21,4.90
2016,08,27,03,22,3.60
2016,08,27,03,23,5.40
2016,08,27,03,24,3.50
2016,08,27,03,25,4.60
2016,08,27,03,26,2.80
2016,08,27,03,27,3.50
2016,08,27,03,28,5.10
2016,08,27,03,29,3.30
2016,08,27,03,30,5.80
2016,08,27,03,31,4.40
2016,08,27,03,32,5.60
2016,08,27,03,33,4.40
2016,08,27,03,34,3.80
2016,08,27,03,35,2.50
2016,08,27,03,36,3.80
2016,08,27,03,37,3.60
2016,08,27,03,38,4.00
2016,08,27,03,39,4.90
2016,08,27,03,40,4.00
2016,08,27,03,41,3.90
2016,08,27,03,42,2.00
2016,08,27,03,43,2.00
2016,08,27,03,44,1.60
2016,08,27,03,45,1.50
2016,08,27,03,46,0.50
2016,08,27,03,47,0.20
2016,08,27,03,48,2.40
2016,08,27,03,49,1.90
2016,08,27,03,50,1.70
2016,08,27,03,51,3.20
2016,08,27,03,52,2.90
2016,08,27,03,53,4.80
2016,08,27,03,54,1.70
2016,08,27,03,55,2.40
2016,08,27,03,56,1.80
2016,08,27,03,57,0.60
2016,08,27,03,58,0.80
2016,08,27,03,59,1.80
2016,08,27,04,00,3.40
2016,08,27,04,01,3.50
2016,08,27,04,02,3.50
2016,08,27,04,03,1.50
2016,08,27,04,04,0.90
2016,08,27,04,05,1.30
2016,08,27,04,06,0.70
2016,08,27,04,07,0.50
2016,08,27,04,08,1.10
2016,08,27,04,09,2.70
2016,08,27,04,10,1.00
2016,08,27,04,11,0.40
2016,08,27,04,12,0.80
2016,08,27,04,13,0.80
2016,08,27,04,14,0.70
2016,08,27,04,15,2.40
2016,08,27,04,16,1.40
2016,08,27,04,17,1.50
2016,08,27,04,18,1.70
2016,08,27,04,19,0.20
2016,08,27,04,20,1.30
2016,08,27,04,21,2.20
2016,08,27,04,22,0.90
2016,08,27,04,23,1.20
2016,08,27,04,24,0.30
2016,08,27,04,25,2.70
2016,08,27,04,26,3.40
2016,08,27,04,27,3.20
2016,08,27,04,28,3.20
2016,08,27,04,29,2.00
2016,08,27,04,30,2.90
2016,08,27,04,31,4.00
2016,08,27,04,32,2.10
2016,08,27,04,33,3.80
2016,08,27,04,34,3.50
2016,08,27,04,35,6.10
2016,08,27,04,36,3.00
2016,08,27,04,37,3.30
2016,08,27,04,38,9.10
2016,08,27,04,39,7.90
2016,08,27,04,40,6.10
2016,08,27,04,41,3.50
2016,08,27,04,42,4.90
2016,08,27,04,43,2.20
2016,08,27,04,44,1.40
2016,08,27,04,45,3.00
2016,08,27,04,46,0.90
2016,08,27,04,47,0.40
2016,08,27,04,48,0.40
2016,08,27,04,49,0.40
2016,08,27,04,50,0.50
2016,08,27,04,51,1.40
2016,08,27,04,52,1.60
2016,08,27,04,53,2.20
2016,08,27,04,54,5.40
2016,08,27,04,55,2.90
2016,08,27,04,56,0.20
2016,08,27,04,57,0.00
2016,08,27,04,58,1.20
2016,08,27,04,59,2.10
2016,08,27,05,00,1.10
2016,08,27,05,01,2.30
2016,08,27,05,02,1.40
2016,08,27,05,03,0.60
2016,08,27,05,04,1.70
2016,08,27,05,05,3.90
2016,08,27,05,06,2.10
2016,08,27,05,07,3.00
2016,08,27,05,08,0.70
2016,08,27,05,09,0.50
2016,08,27,05,10,3.50
2016,08,27,05,11,1.20
2016,08,27,05,12,4.20
2016,08,27,05,13,3.60
2016,08,27,05,14,2.30
2016,08,27,05,15,1.80
2016,08,27,05,16,2.40
2016,08,27,05,17,0.60
2016,08,27,05,18,0.90
2016,08,27,05,19,0.60
2016,08,27,05,20,0.60
2016,08,27,05,21,3.60
2016,08,27,05,22,3.30
2016,08,27,05,23,3.20
2016,08,27,05,24,2.80
2016,08,27,05,25,1.20
2016,08,27,05,26,0.00
2016,08,27,05,27,0.70
2016,08,27,05,28,2.30
2016,08,27,05,29,2.10
2016,08,27,05,30,0.30
2016,08,27,05,31,2.30
2016,08,27,05,32,3.70
2016,08,27,05,33,3.90
2016,08,27,05,34,3.50
2016,08,27,05,35,5.20
2016,08,27,05,36,6.40
2016,08,27,05,37,5.80
2016,08,27,05,38,7.10
2016,08,27,05,39,4.90
2016,08,27,05,40,6.90
2016,08,27,05,41,8.60
2016,08,27,05,42,6.00
2016,08,27,05,43,6.60
2016,08,27,05,44,6.40
2016,08,27,05,45,6.20
2016,08,27,05,46,5.80
2016,08,27,05,47,6.30
2016,08,27,05,48,5.60
2016,08,27,05,49,5.90
2016,08,27,05,50,5.60
2016,08,27,05,51,6.30
2016,08,27,05,52,5.80
2016,08,27,05,53,4.90
2016,08,27,05,54,3.50
2016,08,27,05,55,5.20
2016,08,27,05,56,3.80
2016,08,27,05,57,4.30
2016,08,27,05,58,4.40
2016,08,27,05,59,4.50
2016,08,27,06,00,5.60
2016,08,27,06,01,4.30
2016,08,27,06,02,4.30
2016,08,27,06,03,4.30
2016,08,27,06,04,4.20
2016,08,27,06,05,4.40
2016,08,27,06,06,3.90
2016,08,27,06,07,3.60
2016,08,27,06,08,4.70
2016,08,27,06,09,4.00
2016,08,27,06,10,4.80
2016,08,27,06,11,2.50
2016,08,27,06,12,3.70
2016,08,27,06,13,4.40
2016,08,27,06,14,4.80
2016,08,27,06,15,7.00
2016,08,27,06,16,7.70
2016,08,27,06,17,8.50
2016,08,27,06,18,7.90
2016,08,27,06,19,6.60
2016,08,27,06,20,6.70
2016,08,27,06,21,7.30
2016,08,27,06,22,6.30
2016,08,27,06,23,8.20
2016,08,27,06,24,6.20
2016,08,27,06,25,7.00
2016,08,27,06,26,6.20
2016,08,27,06,27,2.90
2016,08,27,06,28,2.70
2016,08,27,06,29,3.50
2016,08,27,06,30,3.30
2016,08,27,06,31,2.30
2016,08,27,06,32,3.70
2016,08,27,06,33,3.40
2016,08,27,06,34,3.30
2016,08,27,06,35,6.40
2016,08,27,06,36,3.80
2016,08,27,06,37,2.40
2016,08,27,06,38,2.30
2016,08,27,06,39,1.70
2016,08,27,06,40,2.00
2016,08,27,06,41,2.40
2016,08,27,06,42,1.70
2016,08,27,06,43,2.10
2016,08,27,06,44,0.90
2016,08,27,06,45,1.90
2016,08,27,06,46,0.90
2016,08,27,06,47,1.90
2016,08,27,06,48,3.10
2016,08,27,06,49,3.80
2016,08,27,06,50,2.50
2016,08,27,06,51,1.20
2016,08,27,06,52,1.50
2016,08,27,06,53,0.80
2016,08,27,06,54,2.50
2016,08,27,06,55,2.10
2016,08,27,06,56,2.40
2016,08,27,06,57,0.80
2016,08,27,06,58,0.00
2016,08,27,06,59,0.70
2016,08,27,07,00,2.20
2016,08,27,07,01,1.40
2016,08,27,07,02,1.30
2016,08,27,07,03,6.30
2016,08,27,07,04,2.60
2016,08,27,07,05,0.90
2016,08,27,07,06,1.60
2016,08,27,07,07,1.70
2016,08,27,07,08,1.00
2016,08,27,07,09,0.70
2016,08,27,07,10,2.60
2016,08,27,07,11,4.30
2016,08,27,07,12,2.60
2016,08,27,07,13,2.00
2016,08,27,07,14,0.10
2016,08,27,07,15,0.60
2016,08,27,07,16,0.00
2016,08,27,07,17,0.00
2016,08,27,07,18,0.80
2016,08,27,07,19,1.70
2016,08,27,07,20,0.80
2016,08,27,07,21,1.20
2016,08,27,07,22,0.20
2016,08,27,07,23,0.10
2016,08,27,07,24,1.60
2016,08,27,07,25,1.60
2016,08,27,07,26,0.20
2016,08,27,07,27,0.00
2016,08,27,07,28,0.60
2016,08,27,07,29,1.70
2016,08,27,07,30,1.40
2016,08,27,07,31,1.10
2016,08,27,07,32,3.00
2016,08,27,07,33,3.20
2016,08,27,07,34,5.60
2016,08,27,07,35,4.80
2016,08,27,07,36,8.90
2016,08,27,07,37,6.30
2016,08,27,07,38,5.50
2016,08,27,07,39,6.20
2016,08,27,07,40,5.90
2016,08,27,07,41,6.00
2016,08,27,07,42,5.20
2016,08,27,07,43,5.20
2016,08,27,07,44,8.20
2016,08,27,07,45,9.40
2016,08,27,07,46,9.30
2016,08,27,07,47,6.30
2016,08,27,07,48,4.20
2016,08,27,07,49,6.80
2016,08,27,07,50,6.10
2016,08,27,07,51,7.10
2016,08,27,07,52,6.70
2016,08,27,07,53,5.40
2016,08,27,07,54,7.80
2016,08,27,07,55,5.00
2016,08,27,07,56,3.50
2016,08,27,07,57,4.00
2016,08,27,07,58,8.60
2016,08,27,07,59,14.30
2016,08,27,08,00,8.40
2016,08,27,08,01,10.60
2016,08,27,08,02,8.90
2016,08,27,08,03,11.70
2016,08,27,08,04,15.30
2016,08,27,08,05,14.00
2016,08,27,08,06,11.80
2016,08,27,08,07,9.10
2016,08,27,08,08,7.40
2016,08,27,08,09,6.70
2016,08,27,08,10,5.30
2016,08,27,08,11,7.40
2016,08,27,08,12,8.50
2016,08,27,08,13,3.20
2016,08,27,08,14,4.70
2016,08,27,08,15,7.20
2016,08,27,08,16,12.70
2016,08,27,08,17,10.90
2016,08,27,08,18,11.70
2016,08,27,08,19,12.10
2016,08,27,08,20,8.80
2016,08,27,08,21,4.70
2016,08,27,08,22,4.20
2016,08,27,08,23,4.30
2016,08,27,08,24,4.80
2016,08,27,08,25,8.20
2016,08,27,08,26,5.20
2016,08,27,08,27,1.50
2016,08,27,08,28,2.90
2016,08,27,08,29,6.20
2016,08,27,08,30,7.60
2016,08,27,08,31,7.40
2016,08,27,08,32,7.90
2016,08,27,08,33,2.10
2016,08,27,08,34,5.00
2016,08,27,08,35,3.40
2016,08,27,08,36,8.40
2016,08,27,08,37,8.90
2016,08,27,08,38,7.40
2016,08,27,08,39,5.20
2016,08,27,08,40,4.50
2016,08,27,08,41,1.70
2016,08,27,08,42,4.80
2016,08,27,08,43,5.50
2016,08,27,08,44,3.40
2016,08,27,08,45,3.40
2016,08,27,08,46,9.20
2016,08,27,08,47,11.90
2016,08,27,08,48,3.20
2016,08,27,08,49,4.90
2016,08,27,08,50,6.70
2016,08,27,08,51,4.20
2016,08,27,08,52,3.50
2016,08,27,08,53,3.80
2016,08,27,08,54,4.80
2016,08,27,08,55,3.30
2016,08,27,08,56,7.10
2016,08,27,08,57,12.20
2016,08,27,08,58,14.60
2016,08,27,08,59,13.80
2016,08,27,09,00,13.70
2016,08,27,09,01,13.40
2016,08,27,09,02,14.80
2016,08,27,09,03,9.10
2016,08,27,09,04,10.50
2016,08,27,09,05,8.50
2016,08,27,09,06,5.20
2016,08,27,09,07,4.40
2016,08,27,09,08,5.40
2016,08,27,09,09,5.40
2016,08,27,09,10,8.00
2016,08,27,09,11,7.90
2016,08,27,09,12,6.40
2016,08,27,09,13,4.20
2016,08,27,09,14,8.70
2016,08,27,09,15,9.30
2016,08,27,09,16,6.20
2016,08,27,09,17,7.30
2016,08,27,09,18,8.90
2016,08,27,09,19,3.80
2016,08,27,09,20,6.20
2016,08,27,09,21,2.90
2016,08,27,09,22,9.90
2016,08,27,09,23,7.40
2016,08,27,09,24,8.00
2016,08,27,09,25,6.60
2016,08,27,09,26,5.20
2016,08,27,09,27,3.00
2016,08,27,09,28,7.40
2016,08,27,09,29,10.00
2016,08,27,09,30,3.50
2016,08,27,09,31,6.00
2016,08,27,09,32,5.90
2016,08,27,09,33,9.00
2016,08,27,09,34,10.00
2016,08,27,09,35,15.00
2016,08,27,09,36,11.00
2016,08,27,09,37,7.80
2016,08,27,09,38,4.10
2016,08,27,09,39,8.60
2016,08,27,09,40,6.40
2016,08,27,09,41,5.80
2016,08,27,09,42,12.90
2016,08,27,09,43,13.80
2016,08,27,09,44,9.30
2016,08,27,09,45,10.20
2016,08,27,09,46,7.20
2016,08,27,09,47,5.60
2016,08,27,09,48,9.20
2016,08,27,09,49,10.20
2016,08,27,09,50,6.40
2016,08,27,09,51,8.30
2016,08,27,09,52,12.20
2016,08,27,09,53,15.80
2016,08,27,09,54,12.20
2016,08,27,09,55,9.80
2016,08,27,09,56,13.70
2016,08,27,09,57,10.20
2016,08,27,09,58,14.70
2016,08,27,09,59,14.80
2016,08,27,10,00,17.60
2016,08,27,10,01,16.60
2016,08,27,10,02,16.50
2016,08,27,10,03,16.00
2016,08,27,10,04,17.10
2016,08,27,10,05,17.50
2016,08,27,10,06,10.70
2016,08,27,10,07,16.40
2016,08,27,10,08,18.30
2016,08,27,10,09,16.20
2016,08,27,10,10,18.10
2016,08,27,10,11,17.40
2016,08,27,10,12,10.80
2016,08,27,10,13,14.60
2016,08,27,10,14,12.60
2016,08,27,10,15,10.00
2016,08,27,10,16,14.80
2016,08,27,10,17,12.30
2016,08,27,10,18,10.70
2016,08,27,10,19,13.60
2016,08,27,10,20,8.40
2016,08,27,10,21,8.60
2016,08,27,10,22,8.60
2016,08,27,10,23,5.10
2016,08,27,10,24,7.00
2016,08,27,10,25,11.00
2016,08,27,10,26,13.60
2016,08,27,10,27,13.10
2016,08,27,10,28,11.90
2016,08,27,10,29,10.70
2016,08,27,10,30,10.90
2016,08,27,10,31,12.00
2016,08,27,10,32,12.10
2016,08,27,10,33,7.80
2016,08,27,10,34,9.10
2016,08,27,10,35,7.20
2016,08,27,10,36,3.90
2016,08,27,10,37,2.50
2016,08,27,10,38,10.40
2016,08,27,10,39,5.40
2016,08,27,10,40,5.50
2016,08,27,10,41,6.90
2016,08,27,10,42,8.50
2016,08,27,10,43,2.80
2016,08,27,10,44,2.90
2016,08,27,10,45,4.00
2016,08,27,10,46,5.50
2016,08,27,10,47,5.20
2016,08,27,10,48,5.30
2016,08,27,10,49,3.60
2016,08,27,10,50,3.80
2016,08,27,10,51,2.10
2016,08,27,10,52,2.10
2016,08,27,10,53,6.60
2016,08,27,10,54,2.90
2016,08,27,10,55,1.60
2016,08,27,10,56,2.10
2016,08,27,10,57,2.60
2016,08,27,10,58,3.60
2016,08,27,10,59,3.30
2016,08,27,11,00,3.30
2016,08,27,11,01,4.10
2016,08,27,11,02,4.60
2016,08,27,11,03,12.80
2016,08,27,11,04,12.20
2016,08,27,11,05,10.50
2016,08,27,11,06,19.90
2016,08,27,11,07,19.00
2016,08,27,11,08,18.10
2016,08,27,11,09,10.70
2016,08,27,11,10,7.20
2016,08,27,11,11,13.10
2016,08,27,11,12,15.40
2016,08,27,11,13,10.10
2016,08,27,11,14,7.40
2016,08,27,11,15,9.30
2016,08,27,11,16,11.20
2016,08,27,11,17,9.60
2016,08,27,11,18,13.30
2016,08,27,11,19,16.80
2016,08,27,11,20,12.00
2016,08,27,11,21,10.50
2016,08,27,11,22,16.10
2016,08,27,11,23,19.40
2016,08,27,11,24,16.80
2016,08,27,11,25,14.70
2016,08,27,11,26,11.40
2016,08,27,11,27,13.70
2016,08,27,11,28,10.80
2016,08,27,11,29,15.10
2016,08,27,11,30,21.30
2016,08,27,11,31,20.40
2016,08,27,11,32,22.80
2016,08,27,11,33,18.70
2016,08,27,11,34,15.40
2016,08,27,11,35,19.60
2016,08,27,11,36,16.50
2016,08,27,11,37,16.70
2016,08,27,11,38,20.20
2016,08,27,11,39,17.90
2016,08,27,11,40,19.00
2016,08,27,11,41,19.90
2016,08,27,11,42,19.70
2016,08,27,11,43,20.00
2016,08,27,11,44,16.50
2016,08,27,11,45,19.10
2016,08,27,11,46,18.10
2016,08,27,11,47,21.10
2016,08,27,11,48,16.00
2016,08,27,11,49,19.40
2016,08,27,11,50,19.50
2016,08,27,11,51,20.10
2016,08,27,11,52,22.40
2016,08,27,11,53,15.60
2016,08,27,11,54,14.20
2016,08,27,11,55,15.10
2016,08,27,11,56,23.90
2016,08,27,11,57,23.00
2016,08,27,11,58,18.40
2016,08,27,11,59,23.60
2016,08,27,12,00,21.00
2016,08,27,12,01,20.70
2016,08,27,12,02,20.80
2016,08,27,12,03,23.20
2016,08,27,12,04,26.50
2016,08,27,12,05,25.50
2016,08,27,12,06,29.00
2016,08,27,12,07,19.60
2016,08,27,12,08,19.80
2016,08,27,12,09,20.40
2016,08,27,12,10,16.20
2016,08,27,12,11,21.50
2016,08,27,12,12,23.00
2016,08,27,12,13,19.80
2016,08,27,12,14,18.40
2016,08,27,12,15,22.70
2016,08,27,12,16,23.90
2016,08,27,12,17,20.30
2016,08,27,12,18,25.60
2016,08,27,12,19,24.00
2016,08,27,12,20,24.30
2016,08,27,12,21,18.20
2016,08,27,12,22,17.50
2016,08,27,12,23,13.80
2016,08,27,12,24,21.00
2016,08,27,12,25,21.10
2016,08,27,12,26,18.90
2016,08,27,12,27,19.90
2016,08,27,12,28,14.90
2016,08,27,12,29,17.30
2016,08,27,12,30,14.80
2016,08,27,12,31,12.20
2016,08,27,12,32,15.90
2016,08,27,12,33,14.90
2016,08,27,12,34,13.00
2016,08,27,12,35,12.50
2016,08,27,12,36,10.70
2016,08,27,12,37,13.20
2016,08,27,12,38,8.90
2016,08,27,12,39,13.40
2016,08,27,12,40,17.90
2016,08,27,12,41,16.20
2016,08,27,12,42,13.40
2016,08,27,12,43,11.60
2016,08,27,12,44,14.30
2016,08,27,12,45,15.10
2016,08,27,12,46,15.30
2016,08,27,12,47,14.90
2016,08,27,12,48,15.10
2016,08,27,12,49,12.60
2016,08,27,12,50,12.40
2016,08,27,12,51,16.70
2016,08,27,12,52,12.30
2016,08,27,12,53,11.40
2016,08,27,12,54,14.80
2016,08,27,12,55,20.00
2016,08,27,12,56,16.50
2016,08,27,12,57,13.60
2016,08,27,12,58,14.70
2016,08,27,12,59,14.20
2016,08,27,13,00,15.10
2016,08,27,13,01,16.60
2016,08,27,13,02,16.50
2016,08,27,13,03,14.90
2016,08,27,13,04,17.80
2016,08,27,13,05,16.00
2016,08,27,13,06,14.30
2016,08,27,13,07,15.30
2016,08,27,13,08,13.10
2016,08,27,13,09,12.70
2016,08,27,13,10,12.20
2016,08,27,13,11,13.40
2016,08,27,13,12,13.70
2016,08,27,13,13,12.80
2016,08,27,13,14,12.90
2016,08,27,13,15,14.70
2016,08,27,13,16,17.10
2016,08,27,13,17,15.10
2016,08,27,13,18,16.10
2016,08,27,13,19,15.90
2016,08,27,13,20,18.70
2016,08,27,13,21,16.10
2016,08,27,13,22,12.40
2016,08,27,13,23,14.80
2016,08,27,13,24,20.00
2016,08,27,13,25,18.80
2016,08,27,13,26,19.90
2016,08,27,13,27,17.20
2016,08,27,13,28,14.40
2016,08,27,13,29,13.50
2016,08,27,13,30,19.90
2016,08,27,13,31,19.60
2016,08,27,13,32,17.10
2016,08,27,13,33,22.40
2016,08,27,13,34,20.20
2016,08,27,13,35,19.50
2016,08,27,13,36,19.70
2016,08,27,13,37,18.80
2016,08,27,13,38,14.40
2016,08,27,13,39,13.70
2016,08,27,13,40,20.60
2016,08,27,13,41,19.10
2016,08,27,13,42,21.00
2016,08,27,13,43,18.50
2016,08,27,13,44,18.50
2016,08,27,13,45,16.50
2016,08,27,13,46,19.90
2016,08,27,13,47,18.60
2016,08,27,13,48,16.30
2016,08,27,13,49,20.80
2016,08,27,13,50,17.70
2016,08,27,13,51,14.90
2016,08,27,13,52,22.00
2016,08,27,13,53,23.10
2016,08,27,13,54,24.60
2016,08,27,13,55,18.80
2016,08,27,13,56,17.00
2016,08,27,13,57,17.30
2016,08,27,13,58,17.60
2016,08,27,13,59,17.70
2016,08,27,14,00,10.00
2016,08,27,14,01,15.70
2016,08,27,14,02,20.50
2016,08,27,14,03,17.40
2016,08,27,14,04,18.90
2016,08,27,14,05,17.30
2016,08,27,14,06,17.00
2016,08,27,14,07,16.30
2016,08,27,14,08,17.30
2016,08,27,14,09,16.70
2016,08,27,14,10,13.90
2016,08,27,14,11,19.40
2016,08,27,14,12,19.80
2016,08,27,14,13,21.40
2016,08,27,14,14,15.70
2016,08,27,14,15,16.40
2016,08,27,14,16,19.30
2016,08,27,14,17,17.10
2016,08,27,14,18,18.20
2016,08,27,14,19,18.80
2016,08,27,14,20,13.80
2016,08,27,14,21,11.90
2016,08,27,14,22,13.70
2016,08,27,14,23,12.20
2016,08,27,14,24,11.60
2016,08,27,14,25,14.80
2016,08,27,14,26,17.40
2016,08,27,14,27,18.30
2016,08,27,14,28,18.30
2016,08,27,14,29,17.10
2016,08,27,14,30,19.80
2016,08,27,14,31,19.50
2016,08,27,14,32,21.70
2016,08,27,14,33,16.90
2016,08,27,14,34,23.90
2016,08,27,14,35,18.20
2016,08,27,14,36,19.00
2016,08,27,14,37,14.60
2016,08,27,14,38,13.70
2016,08,27,14,39,10.80
2016,08,27,14,40,15.20
2016,08,27,14,41,15.50
2016,08,27,14,42,15.00
2016,08,27,14,43,16.50
2016,08,27,14,44,16.30
2016,08,27,14,45,19.30
2016,08,27,14,46,16.50
2016,08,27,14,47,16.90
2016,08,27,14,48,19.30
2016,08,27,14,49,15.30
2016,08,27,14,50,12.10
2016,08,27,14,51,17.00
2016,08,27,14,52,17.60
2016,08,27,14,53,16.00
2016,08,27,14,54,15.40
2016,08,27,14,55,14.80
2016,08,27,14,56,16.20
2016,08,27,14,57,19.10
2016,08,27,14,58,16.60
2016,08,27,14,59,13.00
2016,08,27,15,00,16.40
2016,08,27,15,01,15.90
2016,08,27,15,02,15.80
2016,08,27,15,03,16.00
2016,08,27,15,04,12.10
2016,08,27,15,05,16.10
2016,08,27,15,06,14.40
2016,08,27,15,07,18.60
2016,08,27,15,08,13.50
2016,08,27,15,09,21.00
2016,08,27,15,10,14.40
2016,08,27,15,11,13.80
2016,08,27,15,12,17.50
2016,08,27,15,13,19.50
2016,08,27,15,14,20.10
2016,08,27,15,15,10.80
2016,08,27,15,16,15.90
2016,08,27,15,17,16.10
2016,08,27,15,18,16.30
2016,08,27,15,19,12.60
2016,08,27,15,20,18.50
2016,08,27,15,21,12.90
2016,08,27,15,22,14.80
2016,08,27,15,23,14.90
2016,08,27,15,24,12.40
2016,08,27,15,25,20.10
2016,08,27,15,26,19.30
2016,08,27,15,27,18.70
2016,08,27,15,28,12.80
2016,08,27,15,29,18.70
2016,08,27,15,30,23.40
2016,08,27,15,31,12.60
2016,08,27,15,32,13.00
2016,08,27,15,33,11.90
2016,08,27,15,34,23.20
2016,08,27,15,35,16.30
2016,08,27,15,36,16.90
2016,08,27,15,37,15.70
2016,08,27,15,38,16.90
2016,08,27,15,39,22.10
2016,08,27,15,40,20.30
2016,08,27,15,41,16.40
2016,08,27,15,42,13.70
2016,08,27,15,43,21.40
2016,08,27,15,44,20.70
2016,08,27,15,45,17.80
2016,08,27,15,46,15.60
2016,08,27,15,47,13.20
2016,08,27,15,48,17.20
2016,08,27,15,49,14.90
2016,08,27,15,50,9.30
2016,08,27,15,51,16.40
2016,08,27,15,52,12.90
2016,08,27,15,53,16.40
2016,08,27,15,54,16.30
2016,08,27,15,55,20.10
2016,08,27,15,56,17.80
2016,08,27,15,57,14.50
2016,08,27,15,58,13.50
2016,08,27,15,59,17.10
2016,08,27,16,00,20.10
2016,08,27,16,01,16.10
2016,08,27,16,02,13.40
2016,08,27,16,03,12.20
2016,08,27,16,04,18.30
2016,08,27,16,05,14.10
2016,08,27,16,06,8.90
2016,08,27,16,07,16.20
2016,08,27,16,08,16.70
2016,08,27,16,09,14.40
2016,08,27,16,10,12.70
2016,08,27,16,11,22.20
2016,08,27,16,12,11.80
2016,08,27,16,13,12.90
2016,08,27,16,14,13.50
2016,08,27,16,15,15.50
2016,08,27,16,16,12.10
2016,08,27,16,17,13.60
2016,08,27,16,18,12.40
2016,08,27,16,19,19.90
2016,08,27,16,20,12.90
2016,08,27,16,21,8.90
2016,08,27,16,22,12.60
2016,08,27,16,23,15.70
2016,08,27,16,24,19.30
2016,08,27,16,25,12.90
2016,08,27,16,26,13.00
2016,08,27,16,27,15.60
2016,08,27,16,28,17.70
2016,08,27,16,29,20.40
2016,08,27,16,30,16.00
2016,08,27,16,31,17.80
2016,08,27,16,32,19.30
2016,08,27,16,33,16.10
2016,08,27,16,34,17.50
2016,08,27,16,35,16.50
2016,08,27,16,36,11.70
2016,08,27,16,37,15.40
2016,08,27,16,38,13.80
2016,08,27,16,39,15.70
2016,08,27,16,40,14.00
2016,08,27,16,41,15.80
2016,08,27,16,42,15.20
2016,08,27,16,43,15.80
2016,08,27,16,44,13.80
2016,08,27,16,45,18.90
2016,08,27,16,46,16.60
2016,08,27,16,47,8.60
2016,08,27,16,48,13.50
2016,08,27,16,49,15.40
2016,08,27,16,50,11.80
2016,08,27,16,51,14.50
2016,08,27,16,52,8.60
2016,08,27,16,53,14.80
2016,08,27,16,54,18.50
2016,08,27,16,55,14.20
2016,08,27,16,56,11.30
2016,08,27,16,57,11.80
2016,08,27,16,58,13.80
2016,08,27,16,59,14.50
2016,08,27,17,00,10.30
2016,08,27,17,01,11.40
2016,08,27,17,02,11.00
2016,08,27,17,03,17.10
2016,08,27,17,04,15.80
2016,08,27,17,05,14.80
2016,08,27,17,06,12.50
2016,08,27,17,07,10.50
2016,08,27,17,08,10.30
2016,08,27,17,09,7.30
2016,08,27,17,10,9.40
2016,08,27,17,11,10.90
2016,08,27,17,12,7.90
2016,08,27,17,13,8.30
2016,08,27,17,14,10.20
2016,08,27,17,15,13.40
2016,08,27,17,16,12.90
2016,08,27,17,17,12.00
2016,08,27,17,18,14.30
2016,08,27,17,19,15.60
2016,08,27,17,20,12.80
2016,08,27,17,21,12.00
2016,08,27,17,22,12.90
2016,08,27,17,23,14.80
2016,08,27,17,24,12.90
2016,08,27,17,25,8.80
2016,08,27,17,26,12.20
2016,08,27,17,27,6.00
2016,08,27,17,28,6.30
2016,08,27,17,29,9.40
2016,08,27,17,30,9.30
2016,08,27,17,31,9.10
2016,08,27,17,32,9.40
2016,08,27,17,33,12.80
2016,08,27,17,34,11.90
2016,08,27,17,35,9.00
2016,08,27,17,36,9.00
2016,08,27,17,37,14.90
2016,08,27,17,38,13.60
2016,08,27,17,39,14.20
2016,08,27,17,40,12.80
2016,08,27,17,41,13.50
2016,08,27,17,42,10.60
2016,08,27,17,43,9.70
2016,08,27,17,44,8.30
2016,08,27,17,45,7.60
2016,08,27,17,46,6.60